Location: Rumah Long Bangan
(2.8362°N, 113.7519°E)
Time: 19:26:00
(UTC+00:00)

Hubble Space Telescope - Pass Details

Date: 24 October 2021
Orbit: 534 x 538 km, 28.5° (Epoch: 07 December)

Event Time Altitude Azimuth Distance (km) Brightness Sun altitude
Exits shadow 21:37:26 11° 283° (WNW) 1,746 2.7 -8.3°
Maximum altitude 21:41:16 44° 211° (SSW) 748 1.4 -7.4°
Drops below altitude 10° 21:45:13 10° 138° (SE) 1,783 4.4 -6.4°
Sets 21:47:33 0° 131° (SE) 2,675 5.5 -5.9°
